Fremont, MI

2:20 PM EST on November 20, 2019 (GMT -0500)
Fremont

Weather History for KFFX - September, 2019

Change the Weather History Date:

Sunday, September 1, 2019

  Actual Average (WUND) Record (WUND)
Temperature  
Mean Temperature 61 °F -  
Max Temperature 67 °F - - (-1)
Min Temperature 55 °F - - (-1)
Degree Days  
Heating Degree Days 4    
Growing Degree Days 11 (Base 50)    
Moisture  
Dew Point 50 °F    
Average Humidity 65    
Maximum Humidity 93    
Minimum Humidity 45    
Precipitation  
Precipitation 0.00 in - - ()
Sea Level Pressure  
Sea Level Pressure 30.17 in    
Wind  
Wind Speed 3 mph ()    
Max Wind Speed 7 mph    
Max Gust Speed -    
Visibility 10.0 miles    
Events Rain    
Averages and records for this station are not official NWS values.
T = Trace of Precipitation, MM = Missing Value Source: Averaged Metar Reports

Daily Weather History Graph

Daily Weather History Graph

Search for Another Location

Airport or City:

Astronomy

Sep. 01, 2019 Rise Set
Actual Time 7:07 AM EDT 8:19 PM EDT
Civil Twilight 6:38 AM EDT 8:48 PM EDT
Nautical Twilight 6:02 AM EDT 9:24 PM EDT
Astronomical Twilight 5:25 AM EDT 10:01 PM EDT
Moon 9:40 AM EDT (9/1) 10:02 PM EDT (9/1)
Length of Visible Light 14h 10m
Length of Day
13h 11m
Waxing Crescent, 8% of the Moon is Illuminated
Sep 1
Waxing Crescent
Sep 5
First Quarter
Sep 14
Full
Sep 21
Last Quarter
Sep 28
New

Hourly Weather History & Observations

Time (EDT) Temp. Dew Point Humidity Pressure Visibility Wind Dir Wind Speed Gust Speed Precip Events Conditions
12:15 AM 62.8 °F 44.6 °F 51% 30.27 in 10.0 mi East 4.6 mph - N/A   Overcast
12:35 AM 63.0 °F 43.5 °F 49% 30.27 in 10.0 mi East 4.6 mph - N/A   Overcast
12:36 AM 63.0 °F 43.7 °F 49% 30.27 in 10.0 mi East 4.6 mph - N/A   Overcast
12:59 AM 62.6 °F 43.3 °F 49% 30.27 in 10.0 mi East 5.8 mph - N/A   Overcast
1:17 AM 62.6 °F 43.3 °F 49% 30.26 in 10.0 mi ESE 3.5 mph - N/A   Overcast
1:35 AM 61.9 °F 43.9 °F 52% 30.27 in 10.0 mi East 3.5 mph - N/A   Overcast
1:36 AM 61.9 °F 43.9 °F 52% 30.27 in 10.0 mi Calm Calm - N/A   Overcast
1:55 AM 61.2 °F 45.3 °F 56% 30.26 in 10.0 mi Calm Calm - N/A Rain Light Rain
1:56 AM 61.2 °F 45.5 °F 56% 30.26 in 10.0 mi Calm Calm - N/A Rain Light Rain
2:15 AM 60.3 °F 46.6 °F 61% 30.25 in 10.0 mi ESE 4.6 mph - N/A   Drizzle
2:20 AM 60.1 °F 46.9 °F 62% 30.25 in 10.0 mi ESE 5.8 mph - N/A Rain Light Rain
2:38 AM 59.5 °F 47.7 °F 65% 30.25 in 10.0 mi SE 5.8 mph - N/A   Light Drizzle
2:56 AM 59.5 °F 48.2 °F 66% 30.25 in 10.0 mi SE 6.9 mph - N/A   Overcast
3:15 AM 59.5 °F 48.4 °F 67% 30.25 in 10.0 mi SE 4.6 mph - N/A   Overcast
3:16 AM 59.5 °F 48.6 °F 67% 30.25 in 10.0 mi SE 4.6 mph - N/A   Overcast
3:35 AM 59.5 °F 48.6 °F 67% 30.25 in 10.0 mi ESE 3.5 mph - N/A   Overcast
3:59 AM 59.4 °F 48.7 °F 68% 30.25 in 10.0 mi SE 3.5 mph - N/A   Overcast
4:17 AM 59.4 °F 49.1 °F 69% 30.24 in 10.0 mi Calm Calm - N/A   Overcast
4:35 AM 59.4 °F 48.2 °F 67% 30.24 in 10.0 mi ESE 3.5 mph - N/A   Overcast
4:55 AM 59.4 °F 47.8 °F 66% 30.24 in 10.0 mi Calm Calm - N/A   Overcast
5:15 AM 59.0 °F 48.0 °F 67% 30.23 in 10.0 mi ESE 3.5 mph - N/A   Overcast
5:20 AM 59.0 °F 47.7 °F 66% 30.23 in 10.0 mi ESE 3.5 mph - N/A   Overcast
5:38 AM 58.6 °F 47.7 °F 67% 30.22 in 10.0 mi SE 3.5 mph - N/A   Overcast
5:56 AM 58.8 °F 47.5 °F 66% 30.21 in 10.0 mi SE 3.5 mph - N/A   Overcast
6:15 AM 58.6 °F 47.1 °F 66% 30.21 in 10.0 mi Calm Calm - N/A   Overcast
6:35 AM 58.3 °F 47.3 °F 67% 30.21 in 10.0 mi ESE 3.5 mph - N/A   Overcast
6:59 AM 58.1 °F 47.7 °F 68% 30.21 in 10.0 mi Calm Calm - N/A   Overcast
7:17 AM 57.2 °F 47.8 °F 71% 30.21 in 10.0 mi Calm Calm - N/A   Scattered Clouds
7:35 AM 55.6 °F 50.5 °F 83% 30.21 in 10.0 mi Calm Calm - N/A   Clear
7:36 AM 55.8 °F 50.5 °F 83% 30.21 in 10.0 mi Calm Calm - N/A   Clear
7:55 AM 55.8 °F 51.1 °F 84% 30.22 in 10.0 mi East 3.5 mph - N/A   Clear
7:56 AM 55.6 °F 51.1 °F 85% 30.22 in 10.0 mi East 3.5 mph - N/A   Clear
8:15 AM 57.6 °F 52.0 °F 82% 30.22 in 10.0 mi Calm Calm - N/A   Mostly Cloudy
8:38 AM 58.3 °F 50.5 °F 75% 30.22 in 10.0 mi East 4.6 mph - N/A   Overcast
8:56 AM 58.8 °F 48.9 °F 70% 30.21 in 10.0 mi Calm Calm - N/A   Overcast
9:15 AM 59.0 °F 48.0 °F 67% 30.21 in 10.0 mi East 3.5 mph - N/A   Overcast
9:16 AM 59.0 °F 47.8 °F 66% 30.21 in 10.0 mi East 3.5 mph - N/A   Overcast
9:35 AM 59.5 °F 46.9 °F 63% 30.21 in 10.0 mi East 3.5 mph - N/A   Overcast
9:36 AM 59.5 °F 47.1 °F 63% 30.21 in 10.0 mi East 3.5 mph - N/A   Overcast
9:59 AM 61.5 °F 46.8 °F 58% 30.21 in 10.0 mi East 4.6 mph - N/A   Overcast
10:17 AM 62.1 °F 45.1 °F 54% 30.20 in 10.0 mi ESE 5.8 mph - N/A   Overcast
10:35 AM 62.1 °F 45.1 °F 54% 30.20 in 10.0 mi SE 4.6 mph - N/A   Scattered Clouds
10:55 AM 64.8 °F 45.5 °F 50% 30.20 in 10.0 mi ESE 4.6 mph - N/A   Clear
11:15 AM 67.8 °F 45.7 °F 45% 30.20 in 10.0 mi ESE 6.9 mph - N/A   Clear
11:20 AM 67.1 °F 45.1 °F 45% 30.20 in 10.0 mi East 4.6 mph - N/A   Scattered Clouds
11:56 AM 66.4 °F 46.6 °F 49% 30.19 in 10.0 mi SE 4.6 mph - N/A   Overcast
12:15 PM 67.5 °F 45.9 °F 46% 30.19 in 10.0 mi SE 5.8 mph - N/A   Overcast
12:35 PM 66.6 °F 45.3 °F 46% 30.19 in 10.0 mi SE 6.9 mph - N/A   Overcast
12:36 PM 66.6 °F 45.5 °F 47% 30.19 in 10.0 mi SE 5.8 mph - N/A   Overcast
12:59 PM 66.6 °F 45.9 °F 47% 30.17 in 10.0 mi SE 4.6 mph - N/A   Overcast
1:17 PM 66.4 °F 46.8 °F 49% 30.17 in 10.0 mi East 5.8 mph - N/A   Overcast
1:35 PM 65.7 °F 46.0 °F 49% 30.17 in 10.0 mi SE 5.8 mph - N/A   Overcast
1:55 PM 65.3 °F 46.4 °F 50% 30.17 in 10.0 mi ESE 4.6 mph - N/A   Overcast
2:15 PM 64.9 °F 46.9 °F 52% 30.16 in 10.0 mi Calm Calm - N/A   Overcast
2:20 PM 65.1 °F 46.8 °F 51% 30.16 in 10.0 mi ESE 3.5 mph - N/A   Overcast
2:38 PM 64.6 °F 47.8 °F 55% 30.15 in 10.0 mi ESE 3.5 mph - N/A   Overcast
2:56 PM 64.6 °F 48.4 °F 56% 30.15 in 10.0 mi SE 4.6 mph - N/A   Overcast
3:15 PM 65.3 °F 48.0 °F 54% 30.14 in 10.0 mi SE 5.8 mph - N/A   Overcast
3:35 PM 64.8 °F 48.7 °F 56% 30.13 in 10.0 mi ESE 6.9 mph - N/A   Overcast
3:59 PM 65.5 °F 49.1 °F 55% 30.12 in 10.0 mi SE 5.8 mph - N/A   Overcast
4:17 PM 65.5 °F 49.5 °F 56% 30.11 in 10.0 mi SE 5.8 mph - N/A   Overcast
4:35 PM 65.7 °F 50.0 °F 57% 30.11 in 10.0 mi SSE 3.5 mph - N/A   Overcast
4:36 PM 65.5 °F 50.0 °F 57% 30.11 in 10.0 mi SSE 4.6 mph - N/A   Overcast
4:55 PM 66.0 °F 50.7 °F 58% 30.11 in 10.0 mi Calm Calm - N/A   Overcast
4:56 PM 66.0 °F 50.7 °F 58% 30.11 in 10.0 mi Calm Calm - N/A   Overcast
5:15 PM 66.4 °F 50.7 °F 57% 30.10 in 10.0 mi South 3.5 mph - N/A   Overcast
5:38 PM 66.6 °F 50.7 °F 57% 30.10 in 10.0 mi Calm Calm - N/A   Overcast
5:56 PM 66.6 °F 50.7 °F 57% 30.09 in 10.0 mi South 3.5 mph - N/A   Overcast
6:15 PM 66.4 °F 51.3 °F 58% 30.09 in 10.0 mi SSW 3.5 mph - N/A   Overcast
6:16 PM 66.4 °F 51.3 °F 58% 30.09 in 10.0 mi Calm Calm - N/A   Overcast
6:35 PM 66.2 °F 51.3 °F 59% 30.09 in 10.0 mi Calm Calm - N/A   Overcast
6:36 PM 66.2 °F 51.4 °F 59% 30.09 in 10.0 mi SSE 3.5 mph - N/A   Overcast
6:59 PM 65.8 °F 52.0 °F 61% 30.08 in 10.0 mi Calm Calm - N/A   Overcast
7:17 PM 65.7 °F 52.2 °F 62% 30.08 in 10.0 mi Calm Calm - N/A   Overcast
7:35 PM 65.5 °F 52.7 °F 63% 30.07 in 10.0 mi Calm Calm - N/A   Overcast
7:56 PM 65.3 °F 53.1 °F 65% 30.07 in 10.0 mi Calm Calm - N/A   Overcast
8:15 PM 64.4 °F 53.6 °F 68% 30.07 in 10.0 mi Calm Calm - N/A   Overcast
8:38 PM 63.1 °F 55.2 °F 75% 30.06 in 10.0 mi Calm Calm - N/A   Overcast
8:56 PM 63.3 °F 57.2 °F 80% 30.06 in 10.0 mi Calm Calm - N/A   Overcast
9:15 PM 62.1 °F 57.7 °F 86% 30.07 in 10.0 mi Calm Calm - N/A   Scattered Clouds
9:16 PM 62.1 °F 57.6 °F 85% 30.07 in 10.0 mi Calm Calm - N/A   Scattered Clouds
9:35 PM 59.9 °F 57.6 °F 92% 30.07 in 10.0 mi Calm Calm - N/A   Mostly Cloudy
9:36 PM 60.1 °F 57.6 °F 91% 30.07 in 10.0 mi Calm Calm - N/A   Mostly Cloudy
9:59 PM 59.9 °F 57.0 °F 90% 30.07 in 10.0 mi Calm Calm - N/A   Overcast
10:17 PM 59.5 °F 57.4 °F 93% 30.07 in 10.0 mi Calm Calm - N/A   Overcast
10:35 PM 59.4 °F 57.2 °F 93% 30.07 in 10.0 mi Calm Calm - N/A   Overcast
10:36 PM 59.4 °F 57.2 °F 93% 30.07 in 10.0 mi Calm Calm - N/A   Overcast
10:55 PM 60.1 °F 58.1 °F 93% 30.07 in 10.0 mi Calm Calm - N/A   Overcast
10:56 PM 60.1 °F 58.1 °F 93% 30.07 in 10.0 mi Calm Calm - N/A   Overcast
11:15 PM 60.4 °F 58.3 °F 93% 30.07 in 10.0 mi Calm Calm - N/A   Overcast
11:20 PM 60.8 °F 58.5 °F 92% 30.07 in 10.0 mi Calm Calm - N/A   Overcast
11:38 PM 60.3 °F 57.6 °F 91% 30.07 in 10.0 mi Calm Calm - N/A   Mostly Cloudy
11:56 PM 58.8 °F 56.8 °F 93% 30.07 in 10.0 mi Calm Calm - N/A   Scattered Clouds